Terug naar catalogus

THOR DELTA 1 R/B

ActiefPO
NORAD 12889·ROCKET BODY·🇺🇸 United States

Gelanceerd Oct 6, 1981 vanaf Vandenberg Space Force Base

Loading…

Volgende Passages (komende 24 uur)

TLE

VersSource: Space-Track

Epoch: Sep 14, 2026, 01:47 UTC

1 12889U 81100C   26257.07497455  .00000178  00000-0  10024-3 0  9997
2 12889  99.8693 108.5633 1307092  95.4660  55.1418 12.20209560992182

Volg THOR DELTA 1 R/B in realtime met AllMySat

Download on the App Store